[Date Prev][Date Next][Thread Prev][Thread Next] - [Date Index][Thread Index][Author Index]

2 Line ISS Keps 7-11



ISS
1 25544U 98067A   02192.12184376  .00007502  00000-0  10136-3 0  6508
2 25544  51.6371 292.8250 0008513 344.0360  79.0198 15.58853654207766


----
Via the sarex mailing list at AMSAT.ORG courtesy of AMSAT-NA.
To unsubscribe, send "unsubscribe sarex" to Majordomo@amsat.org



AMSAT Top AMSAT Home